| time (UTC) | temp C | wind direction | speed KPH | gust KPH | rain 1hr cm | rain 24hr cm | rain mn cm | humidity % | barometer mb |
| 20260504015927 | 18 | 333 | 9.7 | 22.5 | 0.00 | 0.00 | 0.00 | 62 | 1009.4 |
| 20260504015408 | 18 | 48 | 11.3 | 29.0 | 0.00 | 0.00 | 0.00 | 63 | 1009.5 |
| 20260504014916 | 17 | 4 | 9.7 | 29.0 | 0.00 | 0.00 | 0.00 | 63 | 1009.7 |
| 20260504014419 | 17 | 322 | 9.7 | 30.6 | 0.00 | 0.00 | 0.00 | 64 | 1009.7 |
| 20260504013915 | 17 | 290 | 11.3 | 30.6 | 0.00 | 0.00 | 0.00 | 64 | 1009.7 |
| 20260504012742 | 17 | 338 | 9.7 | 25.7 | 0.00 | 0.00 | 0.00 | 64 | 1009.8 |
| 20260504012225 | 17 | 11 | 8.0 | 27.4 | 0.00 | 0.00 | 0.00 | 66 | 1009.7 |
| 20260504011706 | 17 | 25 | 11.3 | 27.4 | 0.00 | 0.03 | 0.00 | 66 | 1009.8 |
| 20260504011149 | 17 | 276 | 9.7 | 33.8 | 0.00 | 0.03 | 0.00 | 67 | 1009.6 |
| 20260504010636 | 17 | 18 | 11.3 | 33.8 | 0.00 | 0.08 | 0.00 | 67 | 1009.6 |
| 20260504005526 | 16 | 7 | 12.9 | 33.8 | 0.00 | 0.10 | 0.00 | 67 | 1009.8 |
| 20260504005023 | 16 | 20 | 12.9 | 27.4 | 0.00 | 0.10 | 0.00 | 68 | 1009.8 |
| 20260504004526 | 16 | 332 | 11.3 | 27.4 | 0.00 | 0.10 | 0.00 | 67 | 1010.0 |
| 20260504004017 | 17 | 2 | 11.3 | 27.4 | 0.00 | 0.13 | 0.00 | 67 | 1009.9 |
| 20260504002849 | 17 | 345 | 9.7 | 32.2 | 0.00 | 0.20 | 0.00 | 70 | 1009.7 |
| 20260504002346 | 16 | 341 | 11.3 | 32.2 | 0.00 | 0.28 | 0.00 | 70 | 1009.8 |
| 20260504001842 | 16 | 101 | 12.9 | 32.2 | 0.00 | 0.28 | 0.00 | 70 | 1009.8 |
| 20260504001336 | 16 | 39 | 11.3 | 30.6 | 0.00 | 0.36 | 0.00 | 70 | 1009.9 |
| 20260504000827 | 16 | 26 | 9.7 | 30.6 | 0.00 | 0.43 | 0.00 | 70 | 1009.9 |
| 20260503235049 | 16 | 42 | 9.7 | 27.4 | 0.00 | 0.61 | 0.00 | 71 | 1009.9 |
| 20260503234558 | 16 | 260 | 9.7 | 27.4 | 0.00 | 0.64 | 0.00 | 71 | 1009.9 |
| 20260503234104 | 16 | 354 | 9.7 | 27.4 | 0.00 | 0.66 | 0.00 | 72 | 1010.0 |
| 20260503233604 | 16 | 325 | 9.7 | 27.4 | 0.00 | 0.66 | 0.00 | 72 | 1010.0 |
| 20260503233110 | 16 | 334 | 8.0 | 25.7 | 0.00 | 0.69 | 0.00 | 72 | 1010.0 |
| 20260503232613 | 16 | 51 | 8.0 | 25.7 | 0.00 | 0.69 | 0.00 | 73 | 1010.0 |
| 20260503232100 | 16 | 39 | 9.7 | 25.7 | 0.00 | 0.69 | 0.00 | 73 | 1010.1 |
| 20260503231559 | 16 | 317 | 6.4 | 25.7 | 0.00 | 0.69 | 0.00 | 72 | 1010.1 |
| 20260503231109 | 16 | 314 | 4.8 | 16.1 | 0.00 | 0.69 | 0.00 | 73 | 1010.1 |
| 20260503225320 | 15 | 338 | 9.7 | 22.5 | 0.00 | 0.69 | 0.00 | 74 | 1010.2 |
| 20260503224806 | 15 | 356 | 8.0 | 19.3 | 0.00 | 0.69 | 0.00 | 74 | 1010.3 |
| 20260503224304 | 15 | 341 | 8.0 | 25.7 | 0.00 | 0.69 | 0.00 | 75 | 1010.2 |
| 20260503223806 | 15 | 2 | 9.7 | 25.7 | 0.00 | 0.69 | 0.00 | 75 | 1010.3 |
| 20260503223248 | 15 | 30 | 9.7 | 25.7 | 0.00 | 0.69 | 0.00 | 75 | 1010.3 |
| 20260503222110 | 15 | 343 | 6.4 | 20.9 | 0.00 | 0.69 | 0.00 | 75 | 1010.2 |
| 20260503220913 | 15 | 17 | 4.8 | 24.1 | 0.00 | 0.69 | 0.00 | 75 | 1010.3 |
| 20260503220412 | 14 | 313 | 6.4 | 24.1 | 0.00 | 0.69 | 0.00 | 76 | 1010.3 |
| 20260503215856 | 14 | 353 | 6.4 | 24.1 | 0.00 | 0.69 | 0.00 | 76 | 1010.3 |
| 20260503215342 | 14 | 44 | 6.4 | 17.7 | 0.00 | 0.69 | 0.00 | 76 | 1010.3 |
| 20260503214822 | 13 | 349 | 6.4 | 17.7 | 0.00 | 0.69 | 0.00 | 76 | 1010.3 |
| 20260503214308 | 13 | 68 | 4.8 | 16.1 | 0.00 | 0.69 | 0.00 | 76 | 1010.3 |
| 20260503213811 | 13 | 352 | 4.8 | 16.1 | 0.00 | 0.69 | 0.00 | 76 | 1010.2 |
| 20260503213252 | 13 | 50 | 4.8 | 16.1 | 0.00 | 0.69 | 0.00 | 75 | 1010.2 |
| 20260503212741 | 13 | 87 | 6.4 | 17.7 | 0.00 | 0.69 | 0.00 | 76 | 1010.2 |
| 20260503211549 | 13 | 25 | 6.4 | 17.7 | 0.00 | 0.69 | 0.00 | 77 | 1010.0 |
| 20260503211051 | 13 | 53 | 4.8 | 16.1 | 0.00 | 0.69 | 0.00 | 77 | 1010.1 |
| 20260503205316 | 13 | 42 | 3.2 | 11.3 | 0.00 | 0.69 | 0.00 | 78 | 1010.1 |
| 20260503204804 | 13 | 13 | 3.2 | 11.3 | 0.00 | 0.69 | 0.00 | 78 | 1010.0 |
| 20260503203021 | 13 | 1 | 4.8 | 20.9 | 0.00 | 0.69 | 0.00 | 79 | 1010.0 |
| 20260503202515 | 13 | 23 | 4.8 | 20.9 | 0.00 | 0.69 | 0.00 | 79 | 1009.9 |
| 20260503202022 | 13 | 354 | 3.2 | 12.9 | 0.00 | 0.69 | 0.00 | 80 | 1009.9 |
| 20260503201525 | 13 | 18 | 3.2 | 12.9 | 0.00 | 0.69 | 0.00 | 80 | 1009.9 |
| 20260503200336 | 13 | 8 | 3.2 | 11.3 | 0.00 | 0.69 | 0.00 | 81 | 1009.9 |
| 20260503195843 | 13 | 333 | 3.2 | 11.3 | 0.00 | 0.69 | 0.00 | 81 | 1009.8 |
| 20260503194740 | 13 | 358 | 1.6 | 12.9 | 0.00 | 0.69 | 0.00 | 81 | 1009.8 |
| 20260503194247 | 13 | 312 | 1.6 | 12.9 | 0.00 | 0.69 | 0.00 | 81 | 1010.0 |
| 20260503193129 | 13 | 16 | 3.2 | 12.9 | 0.00 | 0.69 | 0.00 | 81 | 1009.9 |
| 20260503192010 | 13 | 25 | 3.2 | 11.3 | 0.00 | 0.69 | 0.00 | 82 | 1009.9 |
| 20260503191508 | 13 | 43 | 3.2 | 11.3 | 0.00 | 0.69 | 0.00 | 82 | 1010.0 |
| 20260503191011 | 13 | 8 | 3.2 | 11.3 | 0.00 | 0.69 | 0.00 | 82 | 1010.1 |
| 20260503190514 | 13 | 299 | 3.2 | 11.3 | 0.00 | 0.69 | 0.00 | 81 | 1010.2 |
| 20260503190005 | 13 | 352 | 3.2 | 16.1 | 0.00 | 0.69 | 0.00 | 81 | 1010.2 |
| 20260503184854 | 13 | 2 | 6.4 | 17.7 | 0.00 | 0.69 | 0.00 | 81 | 1010.3 |
| 20260503184341 | 13 | 51 | 6.4 | 17.7 | 0.00 | 0.69 | 0.00 | 81 | 1010.3 |
| 20260503183848 | 13 | 333 | 4.8 | 17.7 | 0.00 | 0.69 | 0.00 | 81 | 1010.3 |
| 20260503181421 | 13 | 5 | 4.8 | 19.3 | 0.00 | 0.69 | 0.00 | 82 | 1010.4 |
| 20260503180921 | 13 | 40 | 6.4 | 19.3 | 0.00 | 0.69 | 0.00 | 82 | 1010.4 |
| 20260503180410 | 13 | 315 | 4.8 | 19.3 | 0.00 | 0.69 | 0.00 | 82 | 1010.5 |
| 20260503175918 | 13 | 4 | 4.8 | 17.7 | 0.00 | 0.69 | 0.00 | 82 | 1010.6 |
| 20260503175423 | 13 | 343 | 4.8 | 17.7 | 0.00 | 0.69 | 0.00 | 82 | 1010.6 |
| 20260503174927 | 13 | 315 | 6.4 | 17.7 | 0.00 | 0.69 | 0.00 | 82 | 1010.6 |
| 20260503174435 | 13 | 78 | 4.8 | 14.5 | 0.00 | 0.69 | 0.00 | 82 | 1010.7 |
| 20260503173314 | 13 | 66 | 4.8 | 19.3 | 0.00 | 0.69 | 0.00 | 82 | 1010.9 |
| 20260503172809 | 13 | 66 | 4.8 | 19.3 | 0.00 | 0.69 | 0.00 | 82 | 1010.9 |
| 20260503172312 | 13 | 349 | 4.8 | 19.3 | 0.00 | 0.69 | 0.00 | 82 | 1010.8 |
| 20260503171802 | 13 | 63 | 6.4 | 19.3 | 0.00 | 0.69 | 0.00 | 82 | 1010.9 |
| 20260503170624 | 13 | 54 | 4.8 | 12.9 | 0.00 | 0.69 | 0.00 | 82 | 1010.8 |
| 20260503170121 | 13 | 89 | 4.8 | 12.9 | 0.00 | 0.69 | 0.00 | 82 | 1010.9 |
| 20260503160200 | 13 | 335 | 4.8 | 16.1 | 0.00 | 0.69 | 0.00 | 81 | 1011.2 |
| 20260503150510 | 14 | 323 | 3.2 | 11.3 | 0.00 | 0.69 | 0.00 | 82 | 1011.2 |
| 20260503131345 | 15 | 304 | 4.8 | 14.5 | 0.00 | 0.69 | 0.69 | 78 | 1011.6 |
| 20260503130243 | 15 | 325 | 4.8 | 12.9 | 0.00 | 0.69 | 0.69 | 78 | 1011.3 |
| 20260503110538 | 16 | 359 | 4.8 | 12.9 | 0.00 | 0.69 | 0.69 | 75 | 1011.4 |
| 20260503081030 | 16 | 330 | 1.6 | 11.3 | 0.00 | 0.69 | 0.69 | 69 | 1010.1 |
| 20260503080539 | 16 | 331 | 1.6 | 9.7 | 0.00 | 0.69 | 0.69 | 69 | 1010.1 |
| 20260503072843 | 17 | 283 | 0.0 | 3.2 | 0.00 | 0.69 | 0.69 | 71 | 1010.0 |
| 20260503072327 | 17 | 307 | 1.6 | 9.7 | 0.00 | 0.69 | 0.69 | 72 | 1010.0 |
| 20260503071834 | 17 | 270 | 3.2 | 9.7 | 0.00 | 0.69 | 0.69 | 71 | 1010.0 |
| 20260503071342 | 17 | 272 | 1.6 | 9.7 | 0.00 | 0.69 | 0.69 | 72 | 1009.9 |
| 20260503070849 | 18 | 281 | 1.6 | 9.7 | 0.00 | 0.69 | 0.69 | 71 | 1009.9 |
| 20260503070348 | 18 | 231 | 3.2 | 9.7 | 0.00 | 0.69 | 0.69 | 69 | 1009.8 |
| 20260503054839 | 18 | 305 | 3.2 | 16.1 | 0.00 | 0.69 | 0.69 | 77 | 1009.4 |
| 20260503054348 | 18 | 322 | 3.2 | 11.3 | 0.00 | 0.69 | 0.69 | 77 | 1009.5 |
| 20260503053832 | 18 | 338 | 3.2 | 11.3 | 0.00 | 0.69 | 0.69 | 77 | 1009.5 |
| 20260503053323 | 18 | 338 | 3.2 | 8.0 | 0.00 | 0.69 | 0.69 | 78 | 1009.5 |
| 20260503052828 | 18 | 330 | 1.6 | 6.4 | 0.00 | 0.69 | 0.69 | 78 | 1009.5 |
| 20260503052330 | 17 | 282 | 1.6 | 11.3 | 0.00 | 0.69 | 0.69 | 78 | 1009.4 |
| 20260503051813 | 17 | 305 | 3.2 | 11.3 | 0.00 | 0.69 | 0.69 | 79 | 1009.5 |
| 20260503051315 | 17 | 316 | 3.2 | 11.3 | 0.00 | 0.69 | 0.69 | 79 | 1009.4 |
| 20260503050815 | 17 | 330 | 3.2 | 11.3 | 0.00 | 0.69 | 0.69 | 79 | 1009.5 |
| 20260503050314 | 17 | 314 | 3.2 | 8.0 | 0.00 | 0.69 | 0.69 | 80 | 1009.4 |
| 20260503045141 | 17 | 337 | 3.2 | 8.0 | 0.00 | 0.69 | 0.69 | 82 | 1009.4 |
| 20260503044625 | 17 | 312 | 3.2 | 8.0 | 0.00 | 0.69 | 0.69 | 83 | 1009.3 |
| 20260503044108 | 17 | 14 | 1.6 | 6.4 | 0.00 | 0.69 | 0.69 | 83 | 1009.3 |
| 20260503043557 | 18 | 303 | 1.6 | 8.0 | 0.00 | 0.69 | 0.69 | 83 | 1009.2 |
| 20260503043054 | 17 | 270 | 3.2 | 8.0 | 0.00 | 0.69 | 0.69 | 83 | 1009.3 |
| 20260503042604 | 18 | 287 | 3.2 | 17.7 | 0.00 | 0.69 | 0.69 | 83 | 1009.2 |
| 20260503042100 | 18 | 292 | 4.8 | 17.7 | 0.00 | 0.69 | 0.69 | 82 | 1009.3 |
| 20260503041606 | 18 | 286 | 6.4 | 17.7 | 0.00 | 0.69 | 0.69 | 81 | 1009.2 |
| 20260503040449 | 20 | 356 | 6.4 | 22.5 | 0.00 | 0.69 | 0.69 | 81 | 1009.1 |
| 20260503035958 | 20 | 320 | 8.0 | 22.5 | 0.00 | 0.69 | 0.69 | 80 | 1009.1 |
| 20260503035440 | 20 | 22 | 8.0 | 22.5 | 0.00 | 0.69 | 0.69 | 79 | 1009.0 |
| 20260503034932 | 20 | 255 | 6.4 | 22.5 | 0.00 | 0.69 | 0.69 | 78 | 1008.9 |
| 20260503034420 | 20 | 343 | 4.8 | 12.9 | 0.00 | 0.69 | 0.69 | 78 | 1008.7 |
| 20260503033917 | 20 | 302 | 4.8 | 14.5 | 0.00 | 0.69 | 0.69 | 78 | 1008.8 |
| 20260503032758 | 20 | 359 | 4.8 | 14.5 | 0.00 | 0.69 | 0.69 | 78 | 1008.9 |
| 20260503032253 | 20 | 35 | 6.4 | 25.7 | 0.00 | 0.69 | 0.69 | 78 | 1008.9 |
| 20260503031745 | 20 | 37 | 8.0 | 25.7 | 0.00 | 0.69 | 0.69 | 78 | 1009.1 |
| 20260503031255 | 20 | 315 | 8.0 | 25.7 | 0.00 | 0.69 | 0.69 | 77 | 1009.0 |
| 20260503023554 | 20 | 51 | 8.0 | 22.5 | 0.00 | 0.69 | 0.69 | 81 | 1009.2 |
| 20260503023043 | 20 | 319 | 6.4 | 20.9 | 0.00 | 0.69 | 0.69 | 83 | 1009.2 |
| 20260503022546 | 20 | 340 | 8.0 | 20.9 | 0.00 | 0.69 | 0.69 | 83 | 1009.2 |
| 20260503022028 | 20 | 36 | 8.0 | 19.3 | 0.00 | 0.69 | 0.69 | 84 | 1009.1 |
| 20260503020846 | 19 | 81 | 4.8 | 16.1 | 0.00 | 0.66 | 0.66 | 88 | 1009.3 |
| 20260503020355 | 18 | 319 | 4.8 | 16.1 | 0.00 | 0.66 | 0.66 | 88 | 1009.4 |